TimeEST,TemperatureF,Dew PointF,Humidity,Sea Level PressureIn,VisibilityMPH,Wind Direction,Wind SpeedMPH,Gust SpeedMPH,PrecipitationIn,Events,Conditions,WindDirDegrees,DateUTC
12:55 AM,28.2,23.4,82,30.28,10.0,Calm,Calm,-,N/A,,Clear,0,2011-12-02 05:55:00
1:55 AM,30.0,25.7,84,30.30,10.0,WNW,3.5,-,N/A,,Clear,290,2011-12-02 06:55:00
2:55 AM,29.3,25.3,85,30.30,10.0,Calm,Calm,-,N/A,,Clear,0,2011-12-02 07:55:00
3:55 AM,29.3,22.8,77,30.31,10.0,NW,4.6,-,N/A,,Clear,320,2011-12-02 08:55:00
4:55 AM,27.7,23.0,83,30.30,10.0,Calm,Calm,-,N/A,,Clear,0,2011-12-02 09:55:00
5:55 AM,28.6,25.0,86,30.31,10.0,WNW,3.5,-,N/A,,Clear,300,2011-12-02 10:55:00
6:55 AM,26.8,22.5,84,30.32,10.0,WNW,3.5,-,N/A,,Partly Cloudy,300,2011-12-02 11:55:00
7:55 AM,29.7,24.6,81,30.32,10.0,Calm,Calm,-,N/A,,Partly Cloudy,0,2011-12-02 12:55:00
8:55 AM,35.6,26.1,68,30.32,10.0,Calm,Calm,-,N/A,,Scattered Clouds,0,2011-12-02 13:55:00
9:55 AM,40.8,30.0,65,30.32,10.0,Calm,Calm,-,N/A,,Scattered Clouds,0,2011-12-02 14:55:00
10:55 AM,44.2,30.0,57,30.30,10.0,Calm,Calm,-,N/A,,Scattered Clouds,0,2011-12-02 15:55:00
11:55 AM,46.4,28.4,50,30.27,10.0,Variable,3.5,-,N/A,,Mostly Cloudy,0,2011-12-02 16:55:00
12:55 PM,48.4,26.1,42,30.26,10.0,Variable,4.6,-,N/A,,Mostly Cloudy,0,2011-12-02 17:55:00
1:55 PM,48.4,25.2,40,30.25,10.0,SSW,8.1,-,N/A,,Mostly Cloudy,200,2011-12-02 18:55:00
2:55 PM,46.6,25.3,43,30.25,10.0,SW,3.5,-,N/A,,Mostly Cloudy,220,2011-12-02 19:55:00
3:55 PM,46.2,24.6,43,30.25,10.0,Calm,Calm,-,N/A,,Mostly Cloudy,0,2011-12-02 20:55:00
4:55 PM,44.6,27.1,50,30.27,10.0,Calm,Calm,-,N/A,,Mostly Cloudy,0,2011-12-02 21:55:00
5:55 PM,42.1,28.4,58,30.30,10.0,Calm,Calm,-,N/A,,Mostly Cloudy,0,2011-12-02 22:55:00
6:55 PM,42.6,27.7,56,30.32,10.0,West,3.5,-,N/A,,Mostly Cloudy,280,2011-12-02 23:55:00
7:55 PM,41.5,27.0,56,30.35,10.0,NW,8.1,-,N/A,,Overcast,310,2011-12-03 00:55:00
8:55 PM,40.8,26.1,56,30.37,10.0,WNW,10.4,-,N/A,,Mostly Cloudy,290,2011-12-03 01:55:00
9:55 PM,39.7,27.3,61,30.40,10.0,WNW,11.5,-,N/A,,Mostly Cloudy,300,2011-12-03 02:55:00
10:55 PM,37.6,27.5,67,30.43,10.0,WNW,10.4,-,N/A,,Partly Cloudy,300,2011-12-03 03:55:00
11:55 PM,34.0,26.6,74,30.44,10.0,NW,5.8,-,N/A,,Clear,310,2011-12-03 04:55:00